TimeEDT,TemperatureF,Dew PointF,Humidity,Sea Level PressureIn,VisibilityMPH,Wind Direction,Wind SpeedMPH,Gust SpeedMPH,PrecipitationIn,Events,Conditions,WindDirDegrees,DateUTC
12:15 AM,59.0,59.0,100,30.23,10.0,Calm,Calm,-,N/A,,Overcast,0,2013-05-19 04:15:00
12:35 AM,59.0,59.0,100,30.23,10.0,ESE,5.8,-,N/A,,Overcast,110,2013-05-19 04:35:00
12:55 AM,59.0,59.0,100,30.22,10.0,Calm,Calm,-,N/A,,Overcast,0,2013-05-19 04:55:00
1:15 AM,59.0,59.0,100,30.22,7.0,East,4.6,-,N/A,,Overcast,90,2013-05-19 05:15:00
1:35 AM,59.0,59.0,100,30.21,3.0,East,3.5,-,N/A,,Overcast,90,2013-05-19 05:35:00
1:55 AM,59.0,59.0,100,30.21,2.5,North,-9999.0,-,N/A,,Overcast,0,2013-05-19 05:55:00
2:15 AM,59.0,59.0,100,30.21,2.0,ENE,3.5,-,N/A,,Overcast,60,2013-05-19 06:15:00
2:35 AM,59.0,59.0,100,30.21,1.2,ENE,3.5,-,N/A,,Overcast,70,2013-05-19 06:35:00
2:55 AM,59.0,59.0,100,30.20,1.2,ENE,5.8,-,N/A,,Overcast,60,2013-05-19 06:55:00
3:15 AM,59.0,59.0,100,30.20,1.5,ENE,3.5,-,N/A,,Overcast,70,2013-05-19 07:15:00
3:35 AM,59.0,59.0,100,30.19,1.2,North,-9999.0,-,N/A,,Overcast,0,2013-05-19 07:35:00
3:55 AM,59.0,59.0,100,30.18,1.0,North,-9999.0,-,N/A,,Overcast,0,2013-05-19 07:55:00
4:15 AM,59.0,59.0,100,30.18,1.5,Calm,Calm,-,N/A,,Overcast,0,2013-05-19 08:15:00
4:35 AM,59.0,59.0,100,30.18,1.8,Calm,Calm,-,N/A,,Overcast,0,2013-05-19 08:35:00
4:55 AM,59.0,59.0,100,30.18,1.5,ENE,3.5,-,N/A,,Overcast,60,2013-05-19 08:55:00
5:15 AM,59.0,59.0,100,30.18,1.5,NE,3.5,-,N/A,,Overcast,50,2013-05-19 09:15:00
5:35 AM,59.0,59.0,100,30.18,1.2,NE,6.9,-,N/A,,Overcast,40,2013-05-19 09:35:00
5:55 AM,59.0,59.0,100,30.18,1.0,Calm,Calm,-,N/A,,Overcast,0,2013-05-19 09:55:00
6:15 AM,59.0,59.0,100,30.18,1.0,NE,4.6,-,N/A,,Overcast,50,2013-05-19 10:15:00
6:35 AM,59.0,59.0,100,30.18,1.5,NE,3.5,-,N/A,,Overcast,40,2013-05-19 10:35:00
6:55 AM,59.0,59.0,100,30.19,2.0,NE,3.5,-,N/A,,Overcast,50,2013-05-19 10:55:00
7:15 AM,60.8,60.8,100,30.20,1.2,Calm,Calm,-,N/A,,Overcast,0,2013-05-19 11:15:00
7:35 AM,60.8,60.8,100,30.20,0.8,Calm,Calm,-,N/A,,Overcast,0,2013-05-19 11:35:00
8:15 AM,60.8,60.8,100,30.21,0.8,NNE,3.5,-,N/A,,Light Drizzle,30,2013-05-19 12:15:00
8:35 AM,60.8,60.8,100,30.22,1.2,Calm,Calm,-,N/A,,Overcast,0,2013-05-19 12:35:00
8:55 AM,60.8,60.8,100,30.22,1.8,NE,4.6,-,N/A,,Overcast,40,2013-05-19 12:55:00
9:15 AM,60.8,60.8,100,30.22,1.8,NE,3.5,-,N/A,,Overcast,40,2013-05-19 13:15:00
9:35 AM,60.8,60.8,100,30.22,1.2,NE,5.8,-,N/A,,Overcast,40,2013-05-19 13:35:00
9:55 AM,60.8,60.8,100,30.21,1.5,NNE,4.6,-,N/A,,Overcast,30,2013-05-19 13:55:00
10:15 AM,60.8,60.8,100,30.22,2.5,Calm,Calm,-,N/A,,Overcast,0,2013-05-19 14:15:00
10:35 AM,62.6,62.6,100,30.21,3.0,Calm,Calm,-,N/A,,Overcast,0,2013-05-19 14:35:00
10:55 AM,62.6,62.6,100,30.21,5.0,East,3.5,-,N/A,,Overcast,90,2013-05-19 14:55:00
11:15 AM,62.6,62.6,100,30.21,7.0,North,-9999.0,-,N/A,,Overcast,0,2013-05-19 15:15:00
11:35 AM,62.6,62.6,100,30.21,7.0,North,-9999.0,-,N/A,,Overcast,0,2013-05-19 15:35:00
11:55 AM,64.4,64.4,100,30.21,7.0,North,-9999.0,-,N/A,,Overcast,0,2013-05-19 15:55:00
12:15 PM,64.4,64.4,100,30.21,10.0,North,-9999.0,-,N/A,,Overcast,0,2013-05-19 16:15:00
12:35 PM,64.4,64.4,100,30.20,10.0,Calm,Calm,-,N/A,,Overcast,0,2013-05-19 16:35:00
12:55 PM,64.4,64.4,100,30.20,10.0,Calm,Calm,-,N/A,,Overcast,0,2013-05-19 16:55:00
1:15 PM,66.2,64.4,94,30.19,10.0,Calm,Calm,-,N/A,,Overcast,0,2013-05-19 17:15:00
1:35 PM,66.2,66.2,100,30.18,10.0,North,-9999.0,-,N/A,,Overcast,0,2013-05-19 17:35:00
1:55 PM,66.2,66.2,100,30.16,10.0,North,-9999.0,-,N/A,,Overcast,0,2013-05-19 17:55:00
2:15 PM,68.0,66.2,94,30.16,7.0,North,-9999.0,-,N/A,,Overcast,0,2013-05-19 18:15:00
2:35 PM,68.0,66.2,94,30.15,7.0,SSE,4.6,-,N/A,,Overcast,150,2013-05-19 18:35:00
3:15 PM,71.6,68.0,88,30.14,10.0,SE,5.8,-,N/A,,Overcast,140,2013-05-19 19:15:00
3:35 PM,71.6,66.2,83,30.13,10.0,North,-9999.0,-,N/A,,Overcast,0,2013-05-19 19:35:00
3:55 PM,71.6,66.2,83,30.12,10.0,North,-9999.0,-,N/A,,Overcast,0,2013-05-19 19:55:00
4:15 PM,73.4,66.2,78,30.12,10.0,SSE,4.6,-,N/A,,Overcast,160,2013-05-19 20:15:00
4:35 PM,73.4,66.2,78,30.12,10.0,North,-9999.0,-,N/A,,Mostly Cloudy,0,2013-05-19 20:35:00
4:55 PM,73.4,68.0,83,30.11,10.0,North,-9999.0,-,N/A,,Mostly Cloudy,0,2013-05-19 20:55:00
5:15 PM,73.4,66.2,78,30.11,10.0,North,-9999.0,-,N/A,,Mostly Cloudy,0,2013-05-19 21:15:00
5:35 PM,73.4,68.0,83,30.11,10.0,North,-9999.0,-,N/A,,Mostly Cloudy,0,2013-05-19 21:35:00
5:55 PM,73.4,68.0,83,30.11,10.0,North,-9999.0,-,N/A,,Mostly Cloudy,0,2013-05-19 21:55:00
6:15 PM,73.4,68.0,83,30.11,10.0,North,-9999.0,-,N/A,,Mostly Cloudy,0,2013-05-19 22:15:00
6:35 PM,73.4,68.0,83,30.10,10.0,North,-9999.0,-,N/A,,Overcast,0,2013-05-19 22:35:00
6:55 PM,73.4,68.0,83,30.10,10.0,North,-9999.0,-,N/A,,Overcast,0,2013-05-19 22:55:00
7:15 PM,71.6,68.0,88,30.10,10.0,North,-9999.0,-,N/A,,Overcast,0,2013-05-19 23:15:00
7:35 PM,71.6,68.0,88,30.10,10.0,North,-9999.0,-,N/A,,Overcast,0,2013-05-19 23:35:00
7:55 PM,71.6,68.0,88,30.10,10.0,North,-9999.0,-,N/A,,Overcast,0,2013-05-19 23:55:00
8:15 PM,71.6,68.0,88,30.10,10.0,North,-9999.0,-,N/A,,Overcast,0,2013-05-20 00:15:00
8:35 PM,71.6,68.0,88,30.11,10.0,North,-9999.0,-,N/A,,Overcast,0,2013-05-20 00:35:00
8:55 PM,69.8,68.0,94,30.11,10.0,North,-9999.0,-,N/A,,Overcast,0,2013-05-20 00:55:00
9:15 PM,69.8,69.8,100,30.13,4.0,Calm,Calm,-,N/A,Rain,Heavy Rain,0,2013-05-20 01:15:00
9:35 PM,69.8,69.8,100,30.13,7.0,SSE,4.6,-,N/A,Rain,Light Rain,150,2013-05-20 01:35:00
9:55 PM,69.8,69.8,100,30.13,7.0,Calm,Calm,-,N/A,,Overcast,0,2013-05-20 01:55:00
10:15 PM,69.8,69.8,100,30.14,7.0,Calm,Calm,-,N/A,,Overcast,0,2013-05-20 02:15:00
10:35 PM,68.0,68.0,100,30.14,5.0,East,3.5,-,N/A,Rain,Rain,80,2013-05-20 02:35:00
10:55 PM,68.0,68.0,100,30.14,7.0,ESE,4.6,-,N/A,,Overcast,120,2013-05-20 02:55:00
11:15 PM,68.0,68.0,100,30.13,7.0,ESE,6.9,-,N/A,,Overcast,110,2013-05-20 03:15:00
11:35 PM,68.0,68.0,100,30.13,7.0,North,-9999.0,-,N/A,Rain,Light Rain,0,2013-05-20 03:35:00
11:55 PM,68.0,68.0,100,30.13,5.0,North,-9999.0,-,N/A,,Light Drizzle,0,2013-05-20 03:55:00